Location: Eaton Estates
(41.3089°N, 82.0057°W)
Time: 19:03:56
(UTC+00:00)

Cosmos 2123 Rocket - Pass Details

Date: 21 October 2021
Orbit: 961 x 992 km, 82.9° (Epoch: 03 December)

Event Time Altitude Azimuth Distance (km) Brightness Sun altitude
Rises 10:58:42 0° 124° (ESE) 3,675 8.2 -9.7°
Reaches altitude 10° 11:04:04 10° 85° (E) 2,744 7.9 -8.7°
Maximum altitude 11:04:57 10° 77° (ENE) 2,722 7.7 -8.6°
Drops below altitude 10° 11:05:51 10° 68° (ENE) 2,749 7.5 -8.4°
Sets 11:11:14 0° 31° (NNE) 3,711 7.4 -7.4°
